Regional Weather Roundup
Issued by NWS

Home | Current Version | Previous Version | Text Only | Print | Product List | Glossary Off
Versions: 1 2 3 4 5 6 7 8 9 10 11 12 13 14 15 16 17 18 19 20 21 22 23 24 25 26 27

000
ASUS45 KBOU 180907
RWRCO

WEATHER ROUNDUP FOR COLORADO
NATIONAL WEATHER SERVICE DENVER/BOULDER CO
300 AM MDT WED OCT 18 2017

NOTE: "FAIR" INDICATES FEW OR NO CLOUDS BELOW 12000 FEET WITH NO
SIGNIFICANT WEATHER AND/OR OBSTRUCTIONS TO VISIBILITY.

COZ001>005-013-030-031-181000-
...NORTHWEST COLORADO...

CITY           SKY/WX    TMP DP  RH WIND       PRES   REMARKS
CRAIG          FAIR      25  19  78 CALM      30.23S
HAYDEN         FAIR      38  16  40 E10       30.25F
MEEKER         FAIR      31  17  56 E5        30.25S WCI  26
RABBIT EARS PA FAIR      37   3  23 W10G20    30.39S
STEAMBOAT SPGS FAIR      28  17  63 CALM      30.26F
WALDEN         FAIR      30  12  47 SE6       30.28F WCI  24
$$

COZ006>008-011-181000-
...WEST CENTRAL VALLEYS...

CITY           SKY/WX    TMP DP  RH WIND       PRES   REMARKS
GRAND JUNCTION FAIR      41  16  36 SE6       30.20S
MONTROSE       FAIR      36  15  42 SE12      30.27S
EAGLE          FAIR      31  17  56 CALM      30.32R
RIFLE          FAIR      35  18  49 SE3       30.26S
DELTA          FAIR      38  13  35 NE6       30.25R
NUCLA          NOT AVBL
$$

COZ017>023-064>068-181000-
...SOUTHWEST COLORADO...

CITY           SKY/WX    TMP DP  RH WIND       PRES   REMARKS
DURANGO        FAIR      32  15  49 CALM      30.29R
CORTEZ         FAIR      31  15  52 NE6       30.26S WCI  25
PAGOSA SPRINGS FAIR      34  15  45 CALM      30.33S
TELLURIDE      NOT AVBL
WOLF CREEK PAS FAIR      36   3  25 SW10      30.55F
$$

COZ009-010-012-014-032>034-037-058>063-181000-
...CENTRAL COLORADO...

CITY           SKY/WX    TMP DP  RH WIND       PRES   REMARKS
ASPEN          FAIR      32  14  47 S6        30.32S WCI  26
BUENA VISTA    FAIR      33  14  44 W7        30.31S WCI  27
COPPER MTN     LGT RAIN  39   1  20 W12G23    30.49S
BERTHOUD PASS  FAIR      32  23  69 NW35G41   30.46F WCI  17
COTTONWOOD PAS FAIR      50  -8   9 NW6       30.38F
GUNNISON       FAIR      23  12  62 CALM      30.38S
KREMMLING      FAIR      28  19  69 CALM      30.33R
LEADVILLE      FAIR      31   5  33 CALM      30.38F
SALIDA         NOT AVBL
SUNLIGHT       FAIR      36   1  23 SW9G20    30.48S
WILKERSON PASS FAIR      39   0  19 W8        30.47S
$$

COZ069>075-181000-
...SAN LUIS VALLEY/SANGRE DE CRISTO MOUNTAINS...

CITY           SKY/WX    TMP DP  RH WIND       PRES   REMARKS
ALAMOSA        FAIR      26  17  68 S5        30.30F WCI  20
DEL NORTE      FAIR      40  14  34 W14       30.33S
LA VETA PASS   FAIR      41  10  28 SW31G37   30.47F
SAGUACHE       FAIR      36   9  32 NW13      30.33S
$$

COZ035-036-038>040-181000-
...NORTHERN COLORADO FRONT RANGE...

CITY           SKY/WX    TMP DP  RH WIND       PRES   REMARKS
DENVER INTL AP MOCLDY    55  17  22 SW15      30.06F
DMNS CITY PARK   N/A     52  19  27 SE9       30.07S
AURORA         PTCLDY    52  19  27 S8        30.09S
FRONT RANGE AP FAIR      50  23  34 S14G22    30.08F
ERIE MUNI ARPT FAIR      62  10  13 SW9       30.10R
BOULDER MUN AP FAIR      61  16  17 SE3       30.06R
CENTENNIAL     FAIR      59  13  16 SW14      30.10S
BROOMFIELD     FAIR      59  18  20 CALM      30.09R
FORT COLLINS   FAIR      42  36  79 S10       30.05S
LONGMONT       FAIR      61  18  18 SW3       30.06S
$$

COZ041-046-047-076>085-087-088-181000-
...PIKES PEAK/PALMER DIVIDE AND SOUTHERN FOOTHILLS...

CITY           SKY/WX    TMP DP  RH WIND       PRES   REMARKS
COLO. SPRINGS  MOCLDY    46  24  42 N9        30.15F
A. F. ACADEMY  FAIR      41  18  39 NE9       30.15F
SCHRIEVER AFB  MOCLDY    49  19  30 MISG      30.15S
CHEYENNE MTN   CLOUDY    58  11  16 NW7       30.12S
ELLICOTT       FAIR     N/A N/A N/A CALM      30.13F
FALCON         FAIR      45  20  37 W7        30.18F
FORT CARSON    FAIR      46  18  32 NW9       30.11F
LIMON          FAIR      33  28  81 N12       30.10S WCI  24
MONUMENT HILL  FAIR      46  14  27 W10       30.19S
CANON CITY     CLEAR     55  18  22 W13       30.10F
WALSENBURG     FAIR      59  12  15 W13       30.15S
TRINIDAD       FAIR      45  20  36 SW13      30.13F
$$

COZ042>045-048>051-090-091-181000-
...NORTHEAST COLORADO...

CITY           SKY/WX    TMP DP  RH WIND       PRES   REMARKS
GREELEY ARPT   FAIR      38  31  76 NW6       30.04
AKRON          FAIR      55  21  26 SW16      30.01S
BURLINGTON     FAIR      47  33  58 SW8       30.02F
WRAY           FAIR      50  28  43 W9        29.96F
YUMA           NOT AVBL
STERLING       FAIR      37  30  75 SW8       29.98S
HOLYOKE        FAIR      43  32  65 W7        29.96S
FORT MORGAN    FAIR      44  22  41 W7        30.02F
$$

COZ086-089-092>099-181000-
...SOUTHEAST COLORADO...

CITY           SKY/WX    TMP DP  RH WIND       PRES   REMARKS
PUEBLO         FAIR      39  25  57 NW5       30.07F
LA JUNTA       FAIR      41  32  70 W7        30.05S
LAMAR          FLURRIES  31  28  89 SW6       30.01S WCI  25
SPRINGFIELD      N/A     42  33  70 W13       30.04F
$$




USA.gov is the U.S. government's official web portal to all federal, state and local government web resources and services.